SWR177 WSSS-LSZH

Flight info

Callsign SWR177
Flight time N/A
Altitude 30000
Route AROSO Y513 KALIL Y501 RINBA Y503 VPL P628 VATLA/N0518F320 P628 RK G202 HILAL/N0498F340 G202 ZB L750 RANAH A846 ABDAN A909 RODAR N644 LEYLA/N0487F360 N644 ADEKI DCT BADIR DCT LAGAS DCT NOLGA UN61 TBN UM11 CRM UL746 ODERO DCT LUGEB DCT NERDI DCT EBORO DCT GOTAR DCT ERKIR DCT KPT L856 NEGRA
Aircraft B77W/H-SDE1E2E3FGHIJ2J3J4J5M1RWXY/LB1D1

Departure

Time N/A
Airport Singapore Changi Airport (WSSS)

Arrival

Time 2026-04-26 04:14
Airport Zürich Airport (LSZH)
Time Latitude Longitude Altitude Speed Heading
2026-04-26 03:31 47.34190 13.69503 35134 ft 454 kts 283°
2026-04-26 03:32 47.35323 13.60337 35131 ft 455 kts 283°
2026-04-26 03:32 47.36452 13.51151 35144 ft 455 kts 283°
2026-04-26 03:33 47.37575 13.41944 35143 ft 456 kts 283°
2026-04-26 03:33 47.38689 13.32742 35142 ft 456 kts 282°
2026-04-26 03:34 47.39797 13.23525 35163 ft 456 kts 282°
2026-04-26 03:34 47.40898 13.14306 35155 ft 456 kts 282°
2026-04-26 03:35 47.41984 13.05150 35155 ft 455 kts 282°
2026-04-26 03:35 47.42529 13.00534 34997 ft 458 kts 282°
2026-04-26 03:35 47.43069 12.95940 35269 ft 454 kts 282°
2026-04-26 03:36 47.43613 12.91298 35147 ft 460 kts 282°
2026-04-26 03:36 47.44156 12.86642 35169 ft 459 kts 282°
2026-04-26 03:36 47.45230 12.77362 35162 ft 457 kts 282°
2026-04-26 03:37 47.46294 12.68122 35165 ft 455 kts 282°
2026-04-26 03:37 47.47347 12.58909 35172 ft 454 kts 282°
2026-04-26 03:38 47.48393 12.49703 35189 ft 454 kts 282°
2026-04-26 03:38 47.49256 12.42045 35182 ft 455 kts 281°
2026-04-26 03:39 47.50291 12.32794 35167 ft 456 kts 281°
2026-04-26 03:39 47.51327 12.23466 35179 ft 457 kts 281°
2026-04-26 03:40 47.52344 12.14234 35184 ft 458 kts 281°
2026-04-26 03:40 47.53363 12.04928 35177 ft 458 kts 281°
2026-04-26 03:41 47.54425 11.95639 35187 ft 457 kts 283°
2026-04-26 03:41 47.55665 11.86404 35186 ft 457 kts 283°
2026-04-26 03:42 47.56916 11.77181 35196 ft 457 kts 283°
2026-04-26 03:42 47.58145 11.67881 35199 ft 465 kts 283°
2026-04-26 03:43 47.59377 11.58402 35215 ft 472 kts 283°
2026-04-26 03:43 47.60605 11.48839 35215 ft 473 kts 282°
2026-04-26 03:44 47.61828 11.39251 35204 ft 473 kts 282°
2026-04-26 03:44 47.63041 11.29691 35205 ft 471 kts 282°
2026-04-26 03:45 47.64244 11.20142 35202 ft 470 kts 282°
2026-04-26 03:45 47.65434 11.10631 35196 ft 469 kts 282°
2026-04-26 03:46 47.66614 11.01138 35203 ft 468 kts 282°
2026-04-26 03:47 47.68367 10.86903 35194 ft 467 kts 282°
2026-04-26 03:47 47.69516 10.77488 35185 ft 467 kts 282°
2026-04-26 03:48 47.70667 10.67987 35187 ft 468 kts 282°
2026-04-26 03:48 47.71812 10.58475 35186 ft 468 kts 282°
2026-04-26 03:49 47.72950 10.48953 35182 ft 468 kts 281°
2026-04-26 03:49 47.74077 10.39430 35183 ft 468 kts 281°
2026-04-26 03:50 47.74570 10.29769 35176 ft 471 kts 270°
2026-04-26 03:50 47.74290 10.20166 35121 ft 455 kts 269°
2026-04-26 03:50 47.74157 10.15492 34670 ft 452 kts 269°
2026-04-26 03:51 47.74038 10.10843 34195 ft 447 kts 269°
2026-04-26 03:51 47.73927 10.06250 33666 ft 444 kts 270°
2026-04-26 03:51 47.73818 10.01688 33152 ft 439 kts 270°
2026-04-26 03:51 47.73706 9.97175 32666 ft 435 kts 270°
2026-04-26 03:52 47.73593 9.92709 32182 ft 431 kts 270°
2026-04-26 03:52 47.73482 9.88468 31726 ft 428 kts 270°
2026-04-26 03:52 47.73366 9.84082 31248 ft 424 kts 270°
2026-04-26 03:52 47.73249 9.79715 30792 ft 421 kts 270°
2026-04-26 03:53 47.73133 9.75381 30324 ft 418 kts 270°
2026-04-26 03:53 47.73016 9.71088 29782 ft 415 kts 270°
2026-04-26 03:53 47.72898 9.66823 29277 ft 411 kts 269°
2026-04-26 03:53 47.72787 9.62599 28806 ft 407 kts 270°
2026-04-26 03:54 47.72682 9.58418 28328 ft 403 kts 270°
2026-04-26 03:54 47.72576 9.54280 27857 ft 400 kts 270°
2026-04-26 03:54 47.72451 9.50168 27387 ft 397 kts 269°
2026-04-26 03:54 47.72302 9.46101 26926 ft 391 kts 266°
2026-04-26 03:55 47.71646 9.42242 26472 ft 393 kts 249°
2026-04-26 03:55 47.70219 9.38803 26055 ft 393 kts 234°
2026-04-26 03:55 47.68472 9.35701 25607 ft 390 kts 233°
2026-04-26 03:55 47.66722 9.32625 25174 ft 388 kts 233°
2026-04-26 03:56 47.65028 9.29607 24744 ft 386 kts 233°
2026-04-26 03:56 47.63327 9.26535 24321 ft 385 kts 234°
2026-04-26 03:56 47.61640 9.23471 23904 ft 383 kts 233°
2026-04-26 03:56 47.59996 9.20392 23388 ft 378 kts 239°
2026-04-26 03:57 47.58932 9.16912 22941 ft 368 kts 260°
2026-04-26 03:57 47.58509 9.13234 22556 ft 360 kts 263°
2026-04-26 03:57 47.58097 9.09575 22125 ft 358 kts 262°
2026-04-26 03:57 47.57949 9.05967 21701 ft 348 kts 281°
2026-04-26 03:58 47.58629 9.02683 21348 ft 342 kts 298°
2026-04-26 03:58 47.59941 8.99758 20937 ft 344 kts 313°
2026-04-26 03:58 47.61633 8.97187 20544 ft 354 kts 316°
2026-04-26 03:58 47.63411 8.94608 20109 ft 360 kts 316°
2026-04-26 03:59 47.65200 8.92011 19658 ft 360 kts 316°
2026-04-26 03:59 47.66975 8.89402 19230 ft 359 kts 315°
2026-04-26 03:59 47.68731 8.86793 18798 ft 358 kts 315°
2026-04-26 03:59 47.70483 8.84174 18326 ft 357 kts 315°
2026-04-26 04:00 47.72225 8.81558 17856 ft 355 kts 315°
2026-04-26 04:00 47.73954 8.78960 17409 ft 353 kts 315°
2026-04-26 04:00 47.75528 8.76223 16959 ft 346 kts 301°
2026-04-26 04:00 47.76338 8.72888 16568 ft 344 kts 279°
2026-04-26 04:01 47.76371 8.69355 16199 ft 343 kts 264°
2026-04-26 04:01 47.75733 8.65949 15802 ft 343 kts 248°
2026-04-26 04:01 47.74729 8.62807 15423 ft 338 kts 240°
2026-04-26 04:01 47.73148 8.60230 15025 ft 344 kts 215°
2026-04-26 04:02 47.70955 8.58768 14654 ft 349 kts 193°
2026-04-26 04:02 47.68565 8.58554 14276 ft 352 kts 173°
2026-04-26 04:02 47.66230 8.59561 13849 ft 347 kts 154°
2026-04-26 04:02 47.64061 8.61129 13440 ft 347 kts 154°
2026-04-26 04:03 47.61888 8.62693 13025 ft 347 kts 154°
2026-04-26 04:03 47.59705 8.64227 12626 ft 347 kts 154°
2026-04-26 04:03 47.57505 8.65749 12071 ft 350 kts 155°
2026-04-26 04:03 47.55302 8.67264 11649 ft 348 kts 155°
2026-04-26 04:04 47.53122 8.68760 11377 ft 342 kts 155°
2026-04-26 04:04 47.50988 8.70222 11122 ft 336 kts 155°
2026-04-26 04:04 47.48882 8.71665 10843 ft 331 kts 155°
2026-04-26 04:04 47.46828 8.73071 10623 ft 317 kts 155°
2026-04-26 04:05 47.44879 8.74403 10401 ft 301 kts 155°
2026-04-26 04:05 47.43015 8.75678 10171 ft 292 kts 155°
2026-04-26 04:05 47.41186 8.76928 10040 ft 289 kts 155°
2026-04-26 04:05 47.39345 8.78185 9694 ft 294 kts 155°
2026-04-26 04:06 47.37491 8.79449 9361 ft 293 kts 155°
2026-04-26 04:06 47.35646 8.80707 9016 ft 292 kts 155°
2026-04-26 04:06 47.33805 8.81960 8670 ft 290 kts 155°
2026-04-26 04:06 47.31976 8.83205 8339 ft 289 kts 155°
2026-04-26 04:07 47.30132 8.84304 7980 ft 283 kts 168°
2026-04-26 04:07 47.28207 8.84245 7665 ft 277 kts 198°
2026-04-26 04:07 47.26542 8.82914 7392 ft 270 kts 222°
2026-04-26 04:07 47.25331 8.80854 7100 ft 265 kts 242°
2026-04-26 04:08 47.24550 8.78430 6746 ft 263 kts 246°
2026-04-26 04:08 47.23803 8.76014 6537 ft 255 kts 246°
2026-04-26 04:08 47.23332 8.73596 6393 ft 240 kts 272°
2026-04-26 04:08 47.23777 8.71273 6358 ft 238 kts 305°
2026-04-26 04:09 47.24981 8.69585 6151 ft 246 kts 326°
2026-04-26 04:09 47.26422 8.68223 5795 ft 248 kts 330°
2026-04-26 04:09 47.27934 8.67036 5425 ft 241 kts 335°
2026-04-26 04:09 47.29419 8.66015 5086 ft 230 kts 336°
2026-04-26 04:10 47.30837 8.65056 4772 ft 216 kts 337°
2026-04-26 04:10 47.32189 8.64136 4458 ft 211 kts 337°
2026-04-26 04:10 47.33492 8.63245 4143 ft 202 kts 338°
2026-04-26 04:10 47.34739 8.62392 3847 ft 194 kts 338°
2026-04-26 04:11 47.35939 8.61572 3599 ft 186 kts 338°
2026-04-26 04:11 47.37100 8.60777 3313 ft 179 kts 339°
2026-04-26 04:11 47.38177 8.60039 3070 ft 163 kts 339°
2026-04-26 04:11 47.39199 8.59340 2838 ft 162 kts 339°
2026-04-26 04:12 47.40203 8.58652 2579 ft 160 kts 338°
2026-04-26 04:12 47.41211 8.57965 2345 ft 156 kts 337°
2026-04-26 04:12 47.42191 8.57287 2092 ft 155 kts 336°
2026-04-26 04:12 47.43149 8.56626 1870 ft 154 kts 336°
2026-04-26 04:13 47.44120 8.55964 1629 ft 154 kts 335°
2026-04-26 04:13 47.45086 8.55300 1422 ft 153 kts 335°
2026-04-26 04:13 47.45984 8.54685 1402 ft 126 kts 335°
2026-04-26 04:13 47.46644 8.54231 1382 ft 82 kts 335°
2026-04-26 04:14 47.46946 8.54023 1384 ft 20 kts 336°
2026-04-26 04:14 47.47015 8.54072 1384 ft 11 kts 69°
2026-04-26 04:14 47.47014 8.54196 1385 ft 13 kts 112°
2026-04-26 04:14 47.46945 8.54303 1384 ft 15 kts 141°
2026-04-26 04:15 47.46851 8.54387 1383 ft 16 kts 157°
2026-04-26 04:15 47.46748 8.54444 1385 ft 16 kts 160°
2026-04-26 04:15 47.46648 8.54510 1403 ft 16 kts 155°
2026-04-26 04:15 47.46548 8.54578 1399 ft 16 kts 155°
2026-04-26 04:16 47.46448 8.54647 1401 ft 16 kts 155°
2026-04-26 04:16 47.46349 8.54716 1386 ft 16 kts 155°
2026-04-26 04:16 47.46243 8.54789 1401 ft 16 kts 155°
2026-04-26 04:16 47.46141 8.54859 1403 ft 16 kts 155°
2026-04-26 04:17 47.46040 8.54929 1404 ft 14 kts 155°
2026-04-26 04:17 47.46025 8.55041 1407 ft 14 kts 37°
2026-04-26 04:17 47.46117 8.55018 1407 ft 14 kts 334°
2026-04-26 04:17 47.46204 8.54956 1404 ft 14 kts 334°
2026-04-26 04:18 47.46280 8.54989 1406 ft 13 kts 62°
2026-04-26 04:18 47.46283 8.55117 1401 ft 13 kts 96°
2026-04-26 04:18 47.46274 8.55245 1398 ft 13 kts 96°
2026-04-26 04:18 47.46264 8.55373 1408 ft 13 kts 96°
2026-04-26 04:19 47.46255 8.55502 1408 ft 13 kts 96°
2026-04-26 04:19 47.46247 8.55619 1406 ft 8 kts 96°
2026-04-26 04:19 47.46241 8.55672 1405 ft 4 kts 114°
2026-04-26 04:19 47.46215 8.55690 1407 ft 4 kts 178°
2026-04-26 04:20 47.46184 8.55686 1406 ft 4 kts 185°
2026-04-26 04:20 47.46167 8.55684 1406 ft 0 kts 185°